| time (UTC) | temp F | wind direction | speed MPH | gust MPH | rain 1hr in | rain 24hr in | rain mn in | humidity % | barometer mb |
| 20260901170605 | 67 | 15 | 1.0 | 6.0 | 0.00 | 0.17 | 0.01 | 52 | 1027.9 |
| 20260901170111 | 68 | 17 | 1.0 | 5.0 | 0.00 | 0.17 | 0.01 | 53 | 1027.8 |
| 20260901160112 | 64 | 15 | 1.0 | 5.0 | 0.00 | 0.19 | 0.01 | 61 | 1028.2 |
| 20260901150606 | 59 | 15 | 1.0 | 6.0 | 0.00 | 0.19 | 0.01 | 69 | 1028.1 |
| 20260901150111 | 59 | 15 | 1.0 | 3.0 | 0.00 | 0.19 | 0.01 | 71 | 1028.2 |
| 20260901140606 | 51 | 127 | 0.0 | 5.0 | 0.00 | 0.19 | 0.01 | 85 | 1028.3 |
| 20260901140111 | 51 | 126 | 0.0 | 6.0 | 0.00 | 0.19 | 0.01 | 85 | 1028.3 |
| 20260901130606 | 48 | 90 | 0.0 | 0.0 | 0.00 | 0.19 | 0.01 | 84 | 1028.2 |
| 20260901130111 | 48 | 90 | 0.0 | 0.0 | 0.00 | 0.19 | 0.01 | 84 | 1028.1 |
| 20260901120605 | 48 | 153 | 0.0 | 0.0 | 0.00 | 0.19 | 0.01 | 84 | 1027.4 |
| 20260901120111 | 48 | 152 | 0.0 | 0.0 | 0.00 | 0.19 | 0.01 | 84 | 1027.5 |
| 20260901110605 | 49 | 150 | 0.0 | 1.0 | 0.01 | 0.19 | 0.01 | 84 | 1027.1 |
| 20260901110111 | 49 | 151 | 0.0 | 2.0 | 0.01 | 0.19 | 0.01 | 84 | 1027.0 |
| 20260901100605 | 49 | 144 | 0.0 | 0.0 | 0.00 | 0.18 | 0.00 | 84 | 1027.0 |
| 20260901100111 | 49 | 144 | 0.0 | 0.0 | 0.00 | 0.18 | 0.00 | 84 | 1027.0 |
| 20260901090605 | 50 | 186 | 0.0 | 0.0 | 0.00 | 0.18 | 0.00 | 84 | 1027.1 |
| 20260901090111 | 51 | 186 | 0.0 | 1.0 | 0.00 | 0.18 | 0.00 | 84 | 1027.1 |
| 20260901080605 | 50 | 160 | 0.0 | 2.0 | 0.00 | 0.18 | 0.00 | 84 | 1027.3 |
| 20260901080111 | 50 | 158 | 0.0 | 1.0 | 0.00 | 0.18 | 0.00 | 83 | 1027.3 |
| 20260901070605 | 51 | 197 | 0.0 | 1.0 | 0.00 | 0.18 | 0.00 | 83 | 1027.5 |
| 20260901070110 | 51 | 198 | 0.0 | 1.0 | 0.00 | 0.18 | 0.00 | 84 | 1027.4 |
| 20260901060111 | 52 | 198 | 0.0 | 1.0 | 0.00 | 0.18 | 0.00 | 83 | 1027.2 |
| 20260901050606 | 53 | 198 | 0.0 | 0.0 | 0.00 | 0.18 | 0.18 | 82 | 1027.1 |
| 20260901050111 | 53 | 198 | 0.0 | 0.0 | 0.00 | 0.18 | 0.18 | 82 | 1027.1 |
| 20260901040606 | 53 | 199 | 0.0 | 0.0 | 0.00 | 0.18 | 0.18 | 81 | 1026.1 |
| 20260901030606 | 54 | 222 | 0.0 | 0.0 | 0.00 | 0.18 | 0.18 | 80 | 1026.1 |
| 20260901030112 | 54 | 222 | 0.0 | 0.0 | 0.00 | 0.18 | 0.18 | 79 | 1026.0 |
| 20260901020607 | 56 | 205 | 0.0 | 3.0 | 0.00 | 0.18 | 0.18 | 76 | 1025.6 |
| 20260901020112 | 56 | 211 | 0.0 | 3.0 | 0.00 | 0.18 | 0.18 | 75 | 1025.6 |
| 20260901010607 | 59 | 210 | 0.0 | 6.0 | 0.00 | 0.18 | 0.18 | 73 | 1025.2 |
| 20260901010112 | 58 | 178 | 1.0 | 6.0 | 0.00 | 0.18 | 0.18 | 73 | 1025.3 |
| 20260901000607 | 60 | 201 | 1.0 | 6.0 | 0.00 | 0.18 | 0.18 | 69 | 1026.0 |
| 20260831230606 | 61 | 168 | 0.0 | 5.0 | 0.00 | 0.18 | 0.18 | 68 | 1025.9 |
| 20260831230112 | 61 | 159 | 0.0 | 5.0 | 0.00 | 0.18 | 0.18 | 69 | 1025.9 |
| 20260831220112 | 60 | 119 | 0.0 | 2.0 | 0.00 | 0.18 | 0.18 | 75 | 1025.7 |
| 20260831200112 | 56 | 7 | 0.0 | 2.0 | 0.00 | 0.50 | 0.18 | 83 | 1027.3 |
| 20260831190606 | 54 | 153 | 0.0 | 0.0 | 0.06 | 0.66 | 0.18 | 84 | 1028.1 |
| 20260831190112 | 53 | 153 | 0.0 | 1.0 | 0.07 | 0.66 | 0.18 | 83 | 1028.4 |
| 20260831180606 | 52 | 192 | 0.0 | 5.0 | 0.10 | 0.60 | 0.12 | 82 | 1028.7 |